| time (UTC) | temp C | wind direction | speed KPH | gust KPH | rain 1hr cm | rain 24hr cm | rain mn cm | humidity % | barometer mb |
| 20260906091505 | 33 | 344 | 6.4 | 16.1 | 0.00 | 0.00 | 0.00 | 27 | 1017.6 |
| 20260906091004 | 33 | 345 | 8.0 | 16.1 | 0.00 | 0.00 | 0.00 | 27 | 1017.4 |
| 20260906090503 | 33 | 353 | 8.0 | 16.1 | 0.00 | 0.00 | 0.00 | 28 | 1017.6 |
| 20260906090004 | 33 | 359 | 6.4 | 14.5 | 0.00 | 0.00 | 0.00 | 29 | 1017.6 |
| 20260906085504 | 33 | 8 | 4.8 | 14.5 | 0.00 | 0.00 | 0.00 | 29 | 1017.8 |
| 20260906085004 | 33 | 16 | 3.2 | 9.7 | 0.00 | 0.00 | 0.00 | 28 | 1017.7 |
| 20260906084505 | 33 | 7 | 4.8 | 12.9 | 0.00 | 0.00 | 0.00 | 28 | 1017.6 |
| 20260906084004 | 33 | 35 | 3.2 | 12.9 | 0.00 | 0.00 | 0.00 | 28 | 1017.7 |
| 20260906083504 | 32 | 349 | 3.2 | 11.3 | 0.00 | 0.00 | 0.00 | 30 | 1017.9 |
| 20260906083006 | 32 | 347 | 3.2 | 11.3 | 0.00 | 0.00 | 0.00 | 29 | 1017.7 |
| 20260906082504 | 32 | 12 | 3.2 | 11.3 | 0.00 | 0.00 | 0.00 | 30 | 1017.9 |
| 20260906082004 | 32 | 356 | 3.2 | 11.3 | 0.00 | 0.00 | 0.00 | 28 | 1017.6 |
| 20260906081505 | 32 | 293 | 1.6 | 9.7 | 0.00 | 0.00 | 0.00 | 27 | 1017.9 |
| 20260906081004 | 32 | 267 | 3.2 | 11.3 | 0.00 | 0.00 | 0.00 | 28 | 1017.8 |
| 20260906075504 | 31 | 212 | 3.2 | 9.7 | 0.00 | 0.00 | 0.00 | 29 | 1017.8 |
| 20260906075004 | 31 | 193 | 1.6 | 9.7 | 0.00 | 0.00 | 0.00 | 28 | 1017.9 |
| 20260906074504 | 30 | 171 | 1.6 | 6.4 | 0.00 | 0.00 | 0.00 | 29 | 1017.9 |
| 20260906074004 | 30 | 179 | 1.6 | 6.4 | 0.00 | 0.00 | 0.00 | 29 | 1017.9 |
| 20260906073504 | 30 | 185 | 1.6 | 6.4 | 0.00 | 0.00 | 0.00 | 29 | 1017.7 |
| 20260906071504 | 29 | 160 | 1.6 | 6.4 | 0.00 | 0.00 | 0.00 | 32 | 1017.7 |
| 20260906071004 | 28 | 152 | 1.6 | 6.4 | 0.00 | 0.00 | 0.00 | 34 | 1017.6 |
| 20260906070504 | 28 | 174 | 1.6 | 6.4 | 0.00 | 0.00 | 0.00 | 35 | 1017.5 |
| 20260906070005 | 27 | 195 | 1.6 | 6.4 | 0.00 | 0.00 | 0.00 | 36 | 1017.6 |
| 20260906065504 | 27 | 206 | 3.2 | 6.4 | 0.00 | 0.00 | 0.00 | 36 | 1017.4 |
| 20260906065004 | 27 | 201 | 3.2 | 6.4 | 0.00 | 0.00 | 0.00 | 36 | 1017.4 |
| 20260906064504 | 26 | 204 | 3.2 | 6.4 | 0.00 | 0.00 | 0.00 | 37 | 1017.5 |
| 20260906063504 | 26 | 227 | 3.2 | 6.4 | 0.00 | 0.00 | 0.00 | 38 | 1017.6 |
| 20260906063005 | 25 | 214 | 3.2 | 6.4 | 0.00 | 0.00 | 0.00 | 39 | 1017.6 |
| 20260906062504 | 25 | 218 | 3.2 | 6.4 | 0.00 | 0.00 | 0.00 | 39 | 1017.5 |
| 20260906062004 | 25 | 213 | 3.2 | 6.4 | 0.00 | 0.00 | 0.00 | 39 | 1017.4 |
| 20260906061504 | 25 | 204 | 1.6 | 6.4 | 0.00 | 0.00 | 0.00 | 39 | 1017.3 |
| 20260906061004 | 25 | 244 | 1.6 | 4.8 | 0.00 | 0.00 | 0.00 | 40 | 1017.3 |
| 20260906060504 | 25 | 254 | 0.0 | 6.4 | 0.00 | 0.00 | 0.00 | 41 | 1017.2 |
| 20260906060004 | 24 | 233 | 1.6 | 6.4 | 0.00 | 0.00 | 0.00 | 42 | 1017.1 |
| 20260906055004 | 23 | 264 | 0.0 | 6.4 | 0.00 | 0.00 | 0.00 | 43 | 1017.2 |
| 20260906054504 | 22 | 269 | 1.6 | 6.4 | 0.00 | 0.00 | 0.00 | 44 | 1017.2 |
| 20260906054004 | 22 | 279 | 1.6 | 6.4 | 0.00 | 0.00 | 0.00 | 45 | 1017.0 |
| 20260906053505 | 21 | 288 | 1.6 | 6.4 | 0.00 | 0.00 | 0.00 | 46 | 1017.1 |
| 20260906053005 | 21 | 304 | 1.6 | 6.4 | 0.00 | 0.00 | 0.00 | 46 | 1017.4 |
| 20260906052503 | 21 | 311 | 0.0 | 6.4 | 0.00 | 0.00 | 0.00 | 47 | 1017.2 |
| 20260906052004 | 20 | 263 | 0.0 | 4.8 | 0.00 | 0.00 | 0.00 | 47 | 1017.2 |
| 20260906051505 | 20 | 236 | 1.6 | 4.8 | 0.00 | 0.00 | 0.00 | 47 | 1017.0 |
| 20260906051004 | 20 | 231 | 1.6 | 4.8 | 0.00 | 0.00 | 0.00 | 48 | 1017.1 |
| 20260906050504 | 20 | 211 | 0.0 | 4.8 | 0.00 | 0.00 | 0.00 | 48 | 1017.3 |
| 20260906050004 | 19 | 198 | 0.0 | 4.8 | 0.00 | 0.00 | 0.00 | 48 | 1017.0 |
| 20260906045503 | 19 | 216 | 0.0 | 4.8 | 0.00 | 0.00 | 0.00 | 49 | 1016.9 |
| 20260906045003 | 19 | 261 | 0.0 | 4.8 | 0.00 | 0.00 | 0.00 | 49 | 1017.1 |
| 20260906044504 | 18 | 244 | 0.0 | 3.2 | 0.00 | 0.00 | 0.00 | 50 | 1017.0 |
| 20260906043504 | 18 | 252 | 1.6 | 8.0 | 0.00 | 0.00 | 0.00 | 49 | 1016.8 |
| 20260906043005 | 18 | 262 | 3.2 | 8.0 | 0.00 | 0.00 | 0.00 | 49 | 1016.9 |
| 20260906042504 | 18 | 263 | 1.6 | 8.0 | 0.00 | 0.00 | 0.00 | 49 | 1017.0 |
| 20260906042004 | 18 | 227 | 0.0 | 6.4 | 0.00 | 0.00 | 0.00 | 50 | 1017.0 |
| 20260906041504 | 18 | 221 | 1.6 | 6.4 | 0.00 | 0.00 | 0.00 | 50 | 1016.9 |
| 20260906041004 | 18 | 228 | 1.6 | 6.4 | 0.00 | 0.00 | 0.00 | 50 | 1016.9 |
| 20260906040504 | 18 | 252 | 1.6 | 4.8 | 0.00 | 0.00 | 0.00 | 50 | 1016.8 |
| 20260906040005 | 18 | 251 | 1.6 | 4.8 | 0.00 | 0.00 | 0.00 | 50 | 1016.8 |
| 20260906035503 | 18 | 232 | 1.6 | 4.8 | 0.00 | 0.00 | 0.00 | 50 | 1016.7 |
| 20260906035003 | 18 | 225 | 1.6 | 4.8 | 0.00 | 0.00 | 0.00 | 50 | 1016.6 |
| 20260906034504 | 18 | 225 | 0.0 | 3.2 | 0.00 | 0.00 | 0.00 | 50 | 1016.7 |
| 20260906034004 | 18 | 225 | 0.0 | 6.4 | 0.00 | 0.00 | 0.00 | 49 | 1016.7 |
| 20260906033504 | 18 | 224 | 1.6 | 6.4 | 0.00 | 0.00 | 0.00 | 50 | 1016.6 |
| 20260906033004 | 17 | 229 | 1.6 | 6.4 | 0.00 | 0.00 | 0.00 | 50 | 1016.4 |
| 20260906032504 | 17 | 230 | 3.2 | 6.4 | 0.00 | 0.00 | 0.00 | 50 | 1016.5 |
| 20260906032004 | 17 | 225 | 3.2 | 6.4 | 0.00 | 0.00 | 0.00 | 50 | 1016.6 |
| 20260906031504 | 17 | 213 | 1.6 | 6.4 | 0.00 | 0.00 | 0.00 | 50 | 1016.5 |
| 20260906030504 | 17 | 225 | 1.6 | 8.0 | 0.00 | 0.00 | 0.00 | 48 | 1016.6 |
| 20260906030004 | 18 | 225 | 4.8 | 12.9 | 0.00 | 0.00 | 0.00 | 48 | 1016.6 |
| 20260906025005 | 18 | 218 | 6.4 | 11.3 | 0.00 | 0.00 | 0.00 | 48 | 1016.4 |
| 20260906024504 | 18 | 226 | 3.2 | 11.3 | 0.00 | 0.00 | 0.00 | 48 | 1016.3 |
| 20260906024004 | 18 | 230 | 1.6 | 6.4 | 0.00 | 0.00 | 0.00 | 49 | 1016.4 |
| 20260906023504 | 18 | 239 | 0.0 | 4.8 | 0.00 | 0.00 | 0.00 | 49 | 1016.2 |
| 20260906023004 | 18 | 240 | 0.0 | 3.2 | 0.00 | 0.00 | 0.00 | 49 | 1016.2 |
| 20260906022003 | 18 | 181 | 0.0 | 1.6 | 0.00 | 0.00 | 0.00 | 48 | 1016.0 |
| 20260906021504 | 18 | 225 | 0.0 | 6.4 | 0.00 | 0.00 | 0.00 | 48 | 1015.9 |
| 20260906020503 | 18 | 213 | 1.6 | 6.4 | 0.00 | 0.00 | 0.00 | 48 | 1016.0 |
| 20260906020004 | 18 | 207 | 1.6 | 6.4 | 0.00 | 0.00 | 0.00 | 48 | 1015.9 |
| 20260906015004 | 18 | 201 | 0.0 | 6.4 | 0.00 | 0.00 | 0.00 | 50 | 1016.2 |
| 20260906014004 | 18 | 45 | 0.0 | 3.2 | 0.00 | 0.00 | 0.00 | 49 | 1016.2 |
| 20260906013503 | 18 | 76 | 0.0 | 3.2 | 0.00 | 0.00 | 0.00 | 48 | 1016.4 |
| 20260906013005 | 18 | 87 | 0.0 | 3.2 | 0.00 | 0.00 | 0.00 | 48 | 1016.3 |
| 20260906012504 | 18 | 90 | 0.0 | 3.2 | 0.00 | 0.00 | 0.00 | 47 | 1016.0 |
| 20260906012004 | 19 | 135 | 0.0 | 1.6 | 0.00 | 0.00 | 0.00 | 46 | 1016.1 |
| 20260906011504 | 19 | 96 | 0.0 | 4.8 | 0.00 | 0.00 | 0.00 | 46 | 1016.1 |
| 20260906011004 | 19 | 90 | 0.0 | 4.8 | 0.00 | 0.00 | 0.00 | 46 | 1016.0 |
| 20260906010504 | 20 | 109 | 0.0 | 4.8 | 0.00 | 0.00 | 0.00 | 46 | 1016.1 |
| 20260906010004 | 20 | 122 | 0.0 | 4.8 | 0.00 | 0.00 | 0.00 | 45 | 1016.2 |
| 20260906005504 | 20 | 177 | 1.6 | 4.8 | 0.00 | 0.00 | 0.00 | 45 | 1016.1 |
| 20260906005004 | 20 | 248 | 0.0 | 4.8 | 0.00 | 0.00 | 0.00 | 45 | 1016.2 |
| 20260906004505 | 20 | 256 | 0.0 | 4.8 | 0.00 | 0.00 | 0.00 | 44 | 1016.2 |
| 20260906004004 | 20 | 253 | 0.0 | 6.4 | 0.00 | 0.00 | 0.00 | 44 | 1016.1 |
| 20260906003504 | 20 | 242 | 1.6 | 6.4 | 0.00 | 0.00 | 0.00 | 44 | 1016.2 |
| 20260906002504 | 20 | 236 | 0.0 | 4.8 | 0.00 | 0.00 | 0.00 | 44 | 1015.9 |
| 20260906002004 | 20 | 225 | 0.0 | 3.2 | 0.00 | 0.00 | 0.00 | 44 | 1016.3 |
| 20260906001504 | 20 | 256 | 0.0 | 4.8 | 0.00 | 0.00 | 0.00 | 43 | 1016.3 |
| 20260906001004 | 20 | 227 | 1.6 | 6.4 | 0.00 | 0.00 | 0.00 | 43 | 1016.3 |
| 20260906000005 | 20 | 249 | 0.0 | 6.4 | 0.00 | 0.00 | 0.00 | 43 | 1016.3 |
| 20260905235504 | 20 | 223 | 0.0 | 4.8 | 0.00 | 0.00 | 0.00 | 43 | 1016.2 |
| 20260905235004 | 20 | 246 | 1.6 | 6.4 | 0.00 | 0.00 | 0.00 | 43 | 1016.4 |
| 20260905234504 | 20 | 244 | 1.6 | 6.4 | 0.00 | 0.00 | 0.00 | 43 | 1016.6 |
| 20260905234004 | 20 | 240 | 1.6 | 6.4 | 0.00 | 0.00 | 0.00 | 43 | 1016.3 |
| 20260905233504 | 20 | 259 | 0.0 | 6.4 | 0.00 | 0.00 | 0.00 | 43 | 1016.3 |
| 20260905233005 | 20 | 249 | 0.0 | 1.6 | 0.00 | 0.00 | 0.00 | 44 | 1016.5 |
| 20260905232504 | 20 | 184 | 0.0 | 1.6 | 0.00 | 0.00 | 0.00 | 44 | 1016.4 |
| 20260905232004 | 20 | 181 | 0.0 | 1.6 | 0.00 | 0.00 | 0.00 | 43 | 1016.4 |
| 20260905231504 | 20 | 191 | 0.0 | 6.4 | 0.00 | 0.00 | 0.00 | 43 | 1016.6 |
| 20260905231003 | 20 | 210 | 1.6 | 6.4 | 0.00 | 0.00 | 0.00 | 43 | 1016.6 |
| 20260905230503 | 20 | 261 | 0.0 | 4.8 | 0.00 | 0.00 | 0.00 | 43 | 1016.6 |
| 20260905230004 | 20 | 271 | 0.0 | 3.2 | 0.00 | 0.00 | 0.00 | 42 | 1016.5 |
| 20260905225003 | 20 | 288 | 0.0 | 3.2 | 0.00 | 0.00 | 0.00 | 42 | 1016.6 |
| 20260905224504 | 20 | 314 | 0.0 | 4.8 | 0.00 | 0.00 | 0.00 | 42 | 1016.8 |
| 20260905224003 | 21 | 314 | 0.0 | 4.8 | 0.00 | 0.00 | 0.00 | 42 | 1016.6 |
| 20260905223004 | 21 | 0 | 0.0 | 0.0 | 0.00 | 0.00 | 0.00 | 42 | 1016.6 |
| 20260905222503 | 21 | 314 | 0.0 | 1.6 | 0.00 | 0.00 | 0.00 | 41 | 1016.7 |
| 20260905222004 | 21 | 261 | 0.0 | 6.4 | 0.00 | 0.00 | 0.00 | 41 | 1016.7 |
| 20260905221504 | 21 | 241 | 0.0 | 6.4 | 0.00 | 0.00 | 0.00 | 41 | 1016.5 |
| 20260905220504 | 21 | 147 | 0.0 | 4.8 | 0.00 | 0.00 | 0.00 | 41 | 1016.6 |
| 20260905215004 | 21 | 6 | 0.0 | 3.2 | 0.00 | 0.00 | 0.00 | 40 | 1016.6 |
| 20260905214504 | 21 | 97 | 0.0 | 4.8 | 0.00 | 0.00 | 0.00 | 40 | 1016.9 |
| 20260905214003 | 22 | 96 | 1.6 | 4.8 | 0.00 | 0.00 | 0.00 | 40 | 1016.8 |
| 20260905213004 | 22 | 225 | 1.6 | 6.4 | 0.00 | 0.00 | 0.00 | 39 | 1016.9 |
| 20260905212504 | 22 | 225 | 1.6 | 6.4 | 0.00 | 0.00 | 0.00 | 39 | 1016.9 |
| 20260905212004 | 22 | 241 | 0.0 | 4.8 | 0.00 | 0.00 | 0.00 | 39 | 1017.0 |
| 20260905210503 | 22 | 238 | 0.0 | 4.8 | 0.00 | 0.00 | 0.00 | 38 | 1016.8 |
| 20260905210005 | 22 | 246 | 0.0 | 6.4 | 0.00 | 0.00 | 0.00 | 38 | 1016.9 |
| 20260905205504 | 22 | 246 | 1.6 | 6.4 | 0.00 | 0.00 | 0.00 | 38 | 1016.8 |
| 20260905204004 | 23 | 222 | 0.0 | 4.8 | 0.00 | 0.00 | 0.00 | 37 | 1016.9 |
| 20260905203504 | 23 | 215 | 1.6 | 6.4 | 0.00 | 0.00 | 0.00 | 37 | 1016.8 |
| 20260905203004 | 23 | 261 | 3.2 | 8.0 | 0.00 | 0.00 | 0.00 | 37 | 1016.8 |
| 20260905202504 | 23 | 285 | 3.2 | 8.0 | 0.00 | 0.00 | 0.00 | 37 | 1017.0 |
| 20260905201505 | 23 | 263 | 0.0 | 6.4 | 0.00 | 0.00 | 0.00 | 37 | 1016.8 |
| 20260905201004 | 23 | 270 | 0.0 | 6.4 | 0.00 | 0.00 | 0.00 | 37 | 1016.9 |
| 20260905200504 | 23 | 260 | 1.6 | 6.4 | 0.00 | 0.00 | 0.00 | 37 | 1016.9 |
| 20260905200005 | 23 | 261 | 1.6 | 6.4 | 0.00 | 0.00 | 0.00 | 36 | 1016.7 |
| 20260905195505 | 23 | 263 | 1.6 | 6.4 | 0.00 | 0.00 | 0.00 | 36 | 1016.8 |
| 20260905195004 | 23 | 251 | 1.6 | 8.0 | 0.00 | 0.00 | 0.00 | 36 | 1016.9 |
| 20260905194504 | 23 | 231 | 1.6 | 8.0 | 0.00 | 0.00 | 0.00 | 36 | 1016.9 |
| 20260905194004 | 23 | 235 | 1.6 | 6.4 | 0.00 | 0.00 | 0.00 | 36 | 1016.8 |
| 20260905193504 | 23 | 260 | 1.6 | 6.4 | 0.00 | 0.00 | 0.00 | 35 | 1016.8 |
| 20260905193004 | 24 | 245 | 0.0 | 4.8 | 0.00 | 0.00 | 0.00 | 35 | 1016.9 |
| 20260905192504 | 24 | 224 | 1.6 | 6.4 | 0.00 | 0.00 | 0.00 | 34 | 1016.9 |
| 20260905192004 | 24 | 231 | 1.6 | 6.4 | 0.00 | 0.00 | 0.00 | 34 | 1016.9 |
| 20260905191504 | 24 | 255 | 1.6 | 6.4 | 0.00 | 0.00 | 0.00 | 34 | 1016.9 |
| 20260905191004 | 24 | 252 | 1.6 | 8.0 | 0.00 | 0.00 | 0.00 | 34 | 1017.0 |
| 20260905190503 | 24 | 220 | 1.6 | 8.0 | 0.00 | 0.00 | 0.00 | 34 | 1016.9 |
| 20260905185503 | 25 | 240 | 3.2 | 9.7 | 0.00 | 0.00 | 0.00 | 34 | 1016.9 |
| 20260905185003 | 25 | 237 | 1.6 | 9.7 | 0.00 | 0.00 | 0.00 | 34 | 1016.8 |
| 20260905183504 | 25 | 218 | 3.2 | 11.3 | 0.00 | 0.00 | 0.00 | 33 | 1016.6 |
| 20260905183005 | 25 | 219 | 1.6 | 9.7 | 0.00 | 0.00 | 0.00 | 33 | 1016.7 |
| 20260905182504 | 25 | 224 | 3.2 | 9.7 | 0.00 | 0.00 | 0.00 | 32 | 1016.4 |
| 20260905182004 | 26 | 233 | 1.6 | 6.4 | 0.00 | 0.00 | 0.00 | 32 | 1016.7 |
| 20260905181504 | 26 | 269 | 0.0 | 6.4 | 0.00 | 0.00 | 0.00 | 32 | 1016.4 |
| 20260905181003 | 26 | 314 | 0.0 | 1.6 | 0.00 | 0.00 | 0.00 | 32 | 1016.4 |
| 20260905180004 | 26 | 314 | 0.0 | 3.2 | 0.00 | 0.00 | 0.00 | 31 | 1016.5 |
| 20260905175503 | 26 | 314 | 0.0 | 1.6 | 0.00 | 0.00 | 0.00 | 31 | 1016.4 |
| 20260905175004 | 26 | 0 | 0.0 | 0.0 | 0.00 | 0.00 | 0.00 | 31 | 1016.4 |
| 20260905174505 | 26 | 0 | 0.0 | 0.0 | 0.00 | 0.00 | 0.00 | 31 | 1016.3 |
| 20260905174004 | 27 | 326 | 0.0 | 3.2 | 0.00 | 0.00 | 0.00 | 30 | 1016.3 |
| 20260905173504 | 27 | 320 | 0.0 | 3.2 | 0.00 | 0.00 | 0.00 | 30 | 1016.2 |
| 20260905172504 | 27 | 359 | 0.0 | 4.8 | 0.00 | 0.00 | 0.00 | 29 | 1016.1 |
| 20260905172004 | 27 | 31 | 0.0 | 4.8 | 0.00 | 0.00 | 0.00 | 29 | 1016.1 |
| 20260905171504 | 27 | 30 | 0.0 | 4.8 | 0.00 | 0.00 | 0.00 | 29 | 1016.0 |
| 20260905171004 | 28 | 34 | 0.0 | 4.8 | 0.00 | 0.00 | 0.00 | 29 | 1016.0 |
| 20260905170503 | 28 | 38 | 1.6 | 6.4 | 0.00 | 0.00 | 0.00 | 29 | 1015.9 |
| 20260905170004 | 28 | 40 | 1.6 | 6.4 | 0.00 | 0.00 | 0.00 | 29 | 1016.0 |
| 20260905165504 | 28 | 20 | 1.6 | 6.4 | 0.00 | 0.00 | 0.00 | 28 | 1016.1 |
| 20260905165003 | 28 | 356 | 1.6 | 6.4 | 0.00 | 0.00 | 0.00 | 28 | 1016.0 |
| 20260905164504 | 29 | 354 | 1.6 | 6.4 | 0.00 | 0.00 | 0.00 | 28 | 1016.0 |
| 20260905164003 | 29 | 345 | 1.6 | 6.4 | 0.00 | 0.00 | 0.00 | 28 | 1016.1 |
| 20260905163503 | 29 | 352 | 3.2 | 9.7 | 0.00 | 0.00 | 0.00 | 28 | 1016.3 |
| 20260905163004 | 30 | 351 | 3.2 | 11.3 | 0.00 | 0.00 | 0.00 | 27 | 1015.9 |
| 20260905162504 | 30 | 345 | 4.8 | 11.3 | 0.00 | 0.00 | 0.00 | 27 | 1016.1 |
| 20260905161504 | 30 | 336 | 4.8 | 11.3 | 0.00 | 0.00 | 0.00 | 26 | 1016.2 |
| 20260905161003 | 30 | 345 | 6.4 | 12.9 | 0.00 | 0.00 | 0.00 | 26 | 1016.2 |
| 20260905160004 | 30 | 359 | 6.4 | 17.7 | 0.00 | 0.00 | 0.00 | 25 | 1016.3 |
| 20260905155504 | 30 | 354 | 8.0 | 16.1 | 0.00 | 0.00 | 0.00 | 24 | 1016.4 |
| 20260905155004 | 31 | 341 | 8.0 | 19.3 | 0.00 | 0.00 | 0.00 | 24 | 1016.2 |
| 20260905154504 | 31 | 348 | 8.0 | 19.3 | 0.00 | 0.00 | 0.00 | 24 | 1016.3 |
| 20260905154004 | 31 | 353 | 8.0 | 19.3 | 0.00 | 0.00 | 0.00 | 23 | 1016.3 |
| 20260905153503 | 31 | 349 | 8.0 | 17.7 | 0.00 | 0.00 | 0.00 | 23 | 1016.3 |
| 20260905153004 | 31 | 347 | 9.7 | 20.9 | 0.00 | 0.00 | 0.00 | 22 | 1016.3 |
| 20260905152504 | 31 | 325 | 11.3 | 20.9 | 0.00 | 0.00 | 0.00 | 22 | 1016.4 |
| 20260905151504 | 31 | 323 | 8.0 | 20.9 | 0.00 | 0.00 | 0.00 | 21 | 1016.1 |
| 20260905150503 | 31 | 326 | 9.7 | 19.3 | 0.00 | 0.00 | 0.00 | 22 | 1016.1 |
| 20260905150004 | 31 | 323 | 11.3 | 24.1 | 0.00 | 0.00 | 0.00 | 22 | 1016.3 |
| 20260905145504 | 31 | 341 | 11.3 | 24.1 | 0.00 | 0.00 | 0.00 | 22 | 1016.1 |
| 20260905145004 | 31 | 331 | 11.3 | 20.9 | 0.00 | 0.00 | 0.00 | 22 | 1016.3 |
| 20260905144504 | 31 | 310 | 11.3 | 20.9 | 0.00 | 0.00 | 0.00 | 22 | 1016.2 |
| 20260905144003 | 31 | 323 | 9.7 | 20.9 | 0.00 | 0.00 | 0.00 | 22 | 1016.4 |
| 20260905143503 | 31 | 348 | 9.7 | 25.7 | 0.00 | 0.00 | 0.00 | 22 | 1016.2 |
| 20260905143004 | 31 | 343 | 11.3 | 25.7 | 0.00 | 0.00 | 0.00 | 22 | 1016.3 |
| 20260905142504 | 31 | 333 | 9.7 | 24.1 | 0.00 | 0.00 | 0.00 | 23 | 1016.1 |
| 20260905142004 | 31 | 347 | 9.7 | 20.9 | 0.00 | 0.00 | 0.00 | 22 | 1016.3 |
| 20260905141504 | 31 | 356 | 11.3 | 20.9 | 0.00 | 0.00 | 0.00 | 23 | 1016.3 |
| 20260905141003 | 31 | 358 | 11.3 | 20.9 | 0.00 | 0.00 | 0.00 | 24 | 1016.2 |
| 20260905140503 | 31 | 329 | 9.7 | 22.5 | 0.00 | 0.00 | 0.00 | 24 | 1016.2 |
| 20260905140005 | 31 | 306 | 8.0 | 22.5 | 0.00 | 0.00 | 0.00 | 24 | 1016.3 |
| 20260905135504 | 31 | 343 | 8.0 | 30.6 | 0.00 | 0.00 | 0.00 | 25 | 1016.3 |
| 20260905135003 | 31 | 341 | 9.7 | 30.6 | 0.00 | 0.00 | 0.00 | 25 | 1016.3 |
| 20260905134504 | 31 | 312 | 9.7 | 22.5 | 0.00 | 0.00 | 0.00 | 25 | 1016.4 |
| 20260905134004 | 31 | 315 | 11.3 | 22.5 | 0.00 | 0.00 | 0.00 | 25 | 1016.3 |
| 20260905133503 | 31 | 343 | 9.7 | 22.5 | 0.00 | 0.00 | 0.00 | 25 | 1016.3 |
| 20260905133004 | 31 | 11 | 9.7 | 22.5 | 0.00 | 0.00 | 0.00 | 25 | 1016.3 |
| 20260905132504 | 31 | 9 | 9.7 | 24.1 | 0.00 | 0.00 | 0.00 | 26 | 1016.3 |
| 20260905132003 | 31 | 2 | 11.3 | 25.7 | 0.00 | 0.00 | 0.00 | 25 | 1016.4 |
| 20260905131504 | 31 | 8 | 12.9 | 27.4 | 0.00 | 0.00 | 0.00 | 25 | 1016.4 |
| 20260905130503 | 31 | 338 | 9.7 | 24.1 | 0.00 | 0.00 | 0.00 | 26 | 1016.2 |
| 20260905125503 | 31 | 342 | 6.4 | 20.9 | 0.00 | 0.00 | 0.00 | 26 | 1016.4 |
| 20260905125003 | 31 | 10 | 8.0 | 20.9 | 0.00 | 0.00 | 0.00 | 27 | 1016.6 |
| 20260905124504 | 31 | 30 | 9.7 | 27.4 | 0.00 | 0.00 | 0.00 | 27 | 1016.7 |
| 20260905124003 | 31 | 15 | 9.7 | 27.4 | 0.00 | 0.00 | 0.00 | 25 | 1016.7 |
| 20260905123504 | 31 | 4 | 9.7 | 25.7 | 0.00 | 0.00 | 0.00 | 26 | 1016.6 |
| 20260905122503 | 31 | 328 | 11.3 | 35.4 | 0.00 | 0.00 | 0.00 | 25 | 1016.8 |
| 20260905122004 | 31 | 312 | 11.3 | 35.4 | 0.00 | 0.00 | 0.00 | 25 | 1016.9 |
| 20260905121504 | 31 | 321 | 12.9 | 35.4 | 0.00 | 0.00 | 0.00 | 24 | 1017.0 |
| 20260905121004 | 31 | 326 | 14.5 | 25.7 | 0.00 | 0.00 | 0.00 | 24 | 1016.8 |
| 20260905120503 | 31 | 318 | 16.1 | 32.2 | 0.00 | 0.00 | 0.00 | 23 | 1017.1 |
| 20260905120003 | 32 | 326 | 14.5 | 32.2 | 0.00 | 0.00 | 0.00 | 22 | 1016.9 |
| 20260905115503 | 32 | 331 | 11.3 | 24.1 | 0.00 | 0.00 | 0.00 | 22 | 1017.2 |
| 20260905115004 | 31 | 341 | 12.9 | 29.0 | 0.00 | 0.00 | 0.00 | 24 | 1016.9 |
| 20260905114504 | 31 | 346 | 14.5 | 29.0 | 0.00 | 0.00 | 0.00 | 23 | 1017.0 |
| 20260905114003 | 31 | 341 | 14.5 | 29.0 | 0.00 | 0.00 | 0.00 | 23 | 1017.1 |
| 20260905113503 | 31 | 335 | 14.5 | 29.0 | 0.00 | 0.00 | 0.00 | 23 | 1016.9 |
| 20260905112003 | 31 | 315 | 14.5 | 32.2 | 0.00 | 0.00 | 0.00 | 26 | 1016.9 |
| 20260905111504 | 31 | 301 | 16.1 | 32.2 | 0.00 | 0.00 | 0.00 | 25 | 1017.0 |
| 20260905110504 | 31 | 334 | 12.9 | 29.0 | 0.00 | 0.00 | 0.00 | 25 | 1017.1 |
| 20260905105504 | 31 | 353 | 16.1 | 30.6 | 0.00 | 0.00 | 0.00 | 26 | 1016.7 |
| 20260905105003 | 31 | 15 | 12.9 | 29.0 | 0.00 | 0.00 | 0.00 | 26 | 1017.1 |
| 20260905104505 | 31 | 20 | 12.9 | 33.8 | 0.00 | 0.00 | 0.00 | 26 | 1017.2 |
| 20260905104003 | 31 | 356 | 14.5 | 33.8 | 0.00 | 0.00 | 0.00 | 26 | 1017.1 |
| 20260905103504 | 31 | 334 | 12.9 | 29.0 | 0.00 | 0.00 | 0.00 | 27 | 1017.1 |
| 20260905103004 | 31 | 338 | 11.3 | 25.7 | 0.00 | 0.00 | 0.00 | 28 | 1017.0 |
| 20260905102504 | 31 | 340 | 12.9 | 25.7 | 0.00 | 0.00 | 0.00 | 28 | 1017.0 |
| 20260905102004 | 31 | 334 | 16.1 | 29.0 | 0.00 | 0.00 | 0.00 | 29 | 1017.2 |
| 20260905101503 | 31 | 339 | 16.1 | 33.8 | 0.00 | 0.00 | 0.00 | 28 | 1016.9 |
| 20260905101003 | 31 | 339 | 16.1 | 33.8 | 0.00 | 0.00 | 0.00 | 28 | 1017.2 |
| 20260905100503 | 31 | 341 | 17.7 | 32.2 | 0.00 | 0.00 | 0.00 | 28 | 1017.2 |
| 20260905095503 | 31 | 349 | 16.1 | 35.4 | 0.00 | 0.00 | 0.00 | 28 | 1017.2 |
| 20260905095004 | 31 | 339 | 14.5 | 29.0 | 0.00 | 0.00 | 0.00 | 30 | 1017.2 |
| 20260905094504 | 31 | 339 | 12.9 | 29.0 | 0.00 | 0.00 | 0.00 | 30 | 1017.2 |
| 20260905094004 | 31 | 7 | 12.9 | 30.6 | 0.00 | 0.00 | 0.00 | 30 | 1017.3 |
| 20260905093504 | 30 | 341 | 12.9 | 30.6 | 0.00 | 0.00 | 0.00 | 31 | 1017.4 |
| 20260905093004 | 30 | 332 | 12.9 | 25.7 | 0.00 | 0.00 | 0.00 | 31 | 1017.3 |
| 20260905092503 | 30 | 321 | 12.9 | 25.7 | 0.00 | 0.00 | 0.00 | 31 | 1017.4 |
| 20260905092004 | 30 | 324 | 11.3 | 25.7 | 0.00 | 0.00 | 0.00 | 31 | 1017.5 |